Weather History for O'Neill, NE

Change the Weather History Date:

Thursday, January 31, 2013

  Actual Average Record
Temperature  
Mean Temperature 2 °F -  
Max Temperature 8 °F 32 °F 67 °F (1989)
Min Temperature -3 °F 9 °F -23 °F (1980)
Degree Days  
Heating Degree Days 62    
Moisture  
Dew Point -5 °F    
Average Humidity 72    
Maximum Humidity 84    
Minimum Humidity 59    
Precipitation  
Precipitation 0.00 in - - ()
Sea Level Pressure  
Sea Level Pressure 30.17 in    
Wind  
Wind Speed 13 mph (NW)    
Max Wind Speed 28 mph    
Max Gust Speed 34 mph    
Visibility 10 miles    
Events      
Averages and records for this station are not official NWS values.
T = Trace of Precipitation, MM = Missing Value Source: NWS Daily Summary

Daily Weather History Graph

Daily Weather History Graph

Search for Another Location

Airport:

Trip Planner

Search our weather history database for the weather conditions in past years. The results will help you decide how hot, cold, wet, or windy it might be!

Date:

Astronomy

Jan. 31, 2013 Rise Set
Actual Time 7:49 AM CST 5:47 PM CST
Civil Twilight 7:19 AM CST 6:17 PM CST
Nautical Twilight 6:45 AM CST 6:51 PM CST
Astronomical Twilight 6:12 AM CST 7:24 PM CST
Moon 10:59 PM CST (1/31) 9:42 AM CST (1/31)
Length of Visible Light 10h 58m
Length of Day
9h 58m
Waning Gibbous, 79% of the Moon is Illuminated
Jan 31
Waning Gibbous
Feb 3
Last Quarter
Feb 10
New
Feb 17
First Quarter
Feb 25
Full

Hourly Weather History & Observations

Time (CST) Temp. Windchill Dew Point Humidity Pressure Visibility Wind Dir Wind Speed Gust Speed Precip Events Conditions
12:15 AM 8.4 °F -6.5 °F 3.7 °F 81% 29.91 in 10.0 mi NW 11.5 mph - N/A   Overcast
12:35 AM 8.2 °F -6.0 °F 3.7 °F 82% 29.93 in 10.0 mi NW 10.4 mph - N/A   Overcast
12:55 AM 8.4 °F -6.5 °F 3.7 °F 81% 29.93 in 10.0 mi NW 11.5 mph - N/A   Overcast
1:15 AM 8.6 °F -5.5 °F 4.1 °F 82% 29.92 in 10.0 mi NW 10.4 mph - N/A   Scattered Clouds
1:35 AM 8.2 °F -6.0 °F 3.7 °F 82% 29.92 in 10.0 mi NW 10.4 mph - N/A   Mostly Cloudy
1:55 AM 7.7 °F -6.6 °F 3.2 °F 82% 29.93 in 10.0 mi NW 10.4 mph - N/A   Mostly Cloudy
2:15 AM 7.2 °F -5.4 °F 3.0 °F 83% 29.93 in 10.0 mi NW 8.1 mph - N/A   Scattered Clouds
2:35 AM 6.4 °F -5.2 °F 2.3 °F 83% 29.94 in 10.0 mi NW 6.9 mph - N/A   Clear
2:55 AM 6.1 °F -7.8 °F 2.1 °F 84% 29.96 in 10.0 mi NW 9.2 mph - N/A   Scattered Clouds
3:15 AM 5.9 °F -9.7 °F 1.8 °F 83% 29.97 in 10.0 mi NW 11.5 mph 16.1 mph N/A   Mostly Cloudy
3:35 AM 5.4 °F -10.4 °F 0.5 °F 80% 29.97 in 10.0 mi NW 11.5 mph - N/A   Mostly Cloudy
3:55 AM 4.8 °F -11.8 °F -0.6 °F 78% 29.97 in 10.0 mi NW 12.7 mph - N/A   Clear
4:15 AM 4.3 °F -13.2 °F -2.2 °F 75% 29.98 in 10.0 mi NW 13.8 mph 17.3 mph N/A   Clear
4:35 AM 3.7 °F -14.6 °F -3.1 °F 73% 29.99 in 10.0 mi NW 15.0 mph 19.6 mph N/A   Scattered Clouds
4:55 AM 3.0 °F -16.7 °F -3.5 °F 74% 30.00 in 10.0 mi NW 17.3 mph 20.7 mph N/A   Mostly Cloudy
5:15 AM 2.3 °F -15.0 °F -4.0 °F 75% 30.01 in 10.0 mi NW 12.7 mph - N/A   Scattered Clouds
5:35 AM 2.1 °F -16.6 °F -4.0 °F 76% 30.01 in 10.0 mi NW 15.0 mph - N/A   Scattered Clouds
5:55 AM 1.6 °F -16.7 °F -4.5 °F 76% 30.03 in 10.0 mi NW 13.8 mph - N/A   Mostly Cloudy
6:15 AM 1.4 °F -17.6 °F -4.5 °F 76% 30.04 in 10.0 mi NW 15.0 mph 20.7 mph N/A   Overcast
6:35 AM 1.4 °F -15.3 °F -4.0 °F 78% 30.04 in 10.0 mi NW 11.5 mph - N/A   Mostly Cloudy
6:55 AM 1.0 °F -15.8 °F -4.7 °F 77% 30.06 in 10.0 mi NW 11.5 mph - N/A   Scattered Clouds
7:15 AM 0.5 °F -17.3 °F -5.1 °F 77% 30.06 in 10.0 mi NW 12.7 mph - N/A   Mostly Cloudy
7:35 AM 0.5 °F -16.5 °F -5.1 °F 77% 30.08 in 10.0 mi NW 11.5 mph - N/A   Mostly Cloudy
7:55 AM 1.2 °F -17.8 °F -4.0 °F 79% 30.10 in 4.0 mi NW 15.0 mph - N/A   Haze
8:15 AM 1.2 °F -18.4 °F -4.0 °F 79% 30.11 in 4.0 mi NW 16.1 mph 19.6 mph N/A   Haze
8:35 AM 1.8 °F -17.1 °F -4.0 °F 77% 30.14 in 10.0 mi NNW 15.0 mph 20.7 mph N/A   Scattered Clouds
8:55 AM 1.9 °F -18.7 °F -4.0 °F 76% 30.15 in 10.0 mi NNW 18.4 mph 24.2 mph N/A   Scattered Clouds
9:15 AM 3.0 °F -18.8 °F -3.8 °F 73% 30.18 in 10.0 mi NNW 21.9 mph 26.5 mph N/A   Mostly Cloudy
9:35 AM 3.0 °F -20.6 °F -5.1 °F 69% 30.19 in 10.0 mi NW 26.5 mph 34.5 mph N/A   Mostly Cloudy
9:55 AM 2.5 °F -21.7 °F -5.4 °F 70% 30.21 in 10.0 mi NW 27.6 mph 33.4 mph N/A   Mostly Cloudy
10:15 AM 2.8 °F -20.0 °F -4.5 °F 71% 30.22 in 7.0 mi NNW 24.2 mph 32.2 mph N/A   Mostly Cloudy
10:35 AM 3.2 °F -19.0 °F -5.3 °F 68% 30.23 in 10.0 mi NW 23.0 mph 28.8 mph N/A   Mostly Cloudy
10:55 AM 2.8 °F -20.0 °F -4.9 °F 70% 30.24 in 4.0 mi NW 24.2 mph 28.8 mph N/A   Haze
11:15 AM 3.9 °F -19.4 °F -5.8 °F 64% 30.25 in 10.0 mi NW 26.5 mph 32.2 mph N/A   Mostly Cloudy
11:35 AM 3.4 °F -17.4 °F -5.8 °F 66% 30.26 in 10.0 mi NW 19.6 mph 27.6 mph N/A   Mostly Cloudy
11:55 AM 3.0 °F -18.8 °F -6.0 °F 66% 30.27 in 10.0 mi NW 21.9 mph 27.6 mph N/A   Overcast
12:15 PM 2.8 °F -21.2 °F -6.7 °F 64% 30.27 in 10.0 mi NW 27.6 mph 33.4 mph N/A   Mostly Cloudy
12:35 PM 3.2 °F -18.6 °F -6.3 °F 65% 30.27 in 10.0 mi NW 21.9 mph 29.9 mph N/A   Mostly Cloudy
12:55 PM 3.4 °F -20.1 °F -6.5 °F 63% 30.27 in 10.0 mi NNW 26.5 mph 33.4 mph N/A   Mostly Cloudy
1:15 PM 3.2 °F -18.1 °F -6.5 °F 64% 30.27 in 10.0 mi NW 20.7 mph - N/A   Scattered Clouds
1:35 PM 3.2 °F -19.5 °F -7.2 °F 62% 30.28 in 10.0 mi NW 24.2 mph 28.8 mph N/A   Clear
1:55 PM 3.9 °F -17.6 °F -6.2 °F 63% 30.26 in 10.0 mi NW 21.9 mph 27.6 mph N/A   Scattered Clouds
2:15 PM 4.8 °F -17.7 °F -5.3 °F 63% 30.26 in 10.0 mi NNW 25.3 mph 28.8 mph N/A   Scattered Clouds
2:35 PM 4.1 °F -17.4 °F -6.5 °F 61% 30.26 in 10.0 mi NNW 21.9 mph 29.9 mph N/A   Scattered Clouds
2:55 PM 4.8 °F -13.8 °F -6.0 °F 61% 30.26 in 10.0 mi NW 16.1 mph 27.6 mph N/A   Clear
3:15 PM 5.9 °F -11.8 °F -5.1 °F 61% 30.27 in 10.0 mi NW 15.0 mph 21.9 mph N/A   Clear
3:35 PM 5.9 °F -13.5 °F -5.3 °F 60% 30.27 in 10.0 mi NNW 18.4 mph - N/A   Clear
3:55 PM 5.7 °F -12.6 °F -5.8 °F 59% 30.27 in 10.0 mi NW 16.1 mph 21.9 mph N/A   Clear
4:15 PM 5.0 °F -14.2 °F -6.3 °F 60% 30.28 in 10.0 mi NW 17.3 mph - N/A   Clear
4:35 PM 5.0 °F -13.6 °F -6.2 °F 60% 30.28 in 10.0 mi NW 16.1 mph 20.7 mph N/A   Clear
4:55 PM 4.6 °F -12.0 °F -6.5 °F 60% 30.28 in 10.0 mi NW 12.7 mph - N/A   Clear
5:15 PM 3.7 °F -13.9 °F -7.1 °F 61% 30.28 in 10.0 mi NW 13.8 mph - N/A   Clear
5:35 PM 3.0 °F -14.1 °F -7.1 °F 63% 30.28 in 10.0 mi NW 12.7 mph 16.1 mph N/A   Clear
5:55 PM 2.3 °F -15.0 °F -7.1 °F 65% 30.28 in 10.0 mi NW 12.7 mph - N/A   Clear
6:15 PM 1.8 °F -14.0 °F -7.6 °F 65% 30.29 in 10.0 mi NW 10.4 mph - N/A   Clear
6:35 PM 1.2 °F -13.7 °F -7.4 °F 67% 30.30 in 10.0 mi NW 9.2 mph - N/A   Clear
6:55 PM 0.9 °F -13.1 °F -7.2 °F 69% 30.30 in 10.0 mi NW 8.1 mph - N/A   Clear
7:15 PM -0.2 °F -14.4 °F -7.6 °F 71% 30.28 in 10.0 mi NNW 8.1 mph - N/A   Clear
7:35 PM -0.6 °F -12.2 °F -7.8 °F 72% 30.29 in 10.0 mi NW 5.8 mph - N/A   Clear
7:55 PM -1.3 °F -13.1 °F -8.5 °F 72% 30.29 in 10.0 mi NW 5.8 mph - N/A   Clear
8:15 PM -1.1 °F -12.9 °F -8.1 °F 72% 30.29 in 10.0 mi NW 5.8 mph - N/A   Clear
8:35 PM -2.4 °F -14.4 °F -8.5 °F 75% 30.29 in 10.0 mi North 5.8 mph - N/A   Clear
8:55 PM -3.1 °F -11.4 °F -9.0 °F 76% 30.28 in 10.0 mi NNW 3.5 mph - N/A   Clear
9:15 PM -3.3 °F -13.7 °F -9.4 °F 75% 30.28 in 10.0 mi NNW 4.6 mph - N/A   Clear
9:35 PM -3.5 °F -13.9 °F -9.4 °F 76% 30.28 in 10.0 mi North 4.6 mph - N/A   Clear
9:55 PM -3.6 °F -12.0 °F -9.6 °F 76% 30.28 in 10.0 mi West 3.5 mph - N/A   Scattered Clouds
10:15 PM -2.2 °F -10.4 °F -7.6 °F 78% 30.30 in 10.0 mi WSW 3.5 mph - N/A   Mostly Cloudy
10:35 PM -0.6 °F -13.6 °F -6.2 °F 77% 30.30 in 10.0 mi SW 6.9 mph - N/A   Overcast
10:55 PM 0.5 °F -13.6 °F -5.8 °F 75% 30.29 in 10.0 mi SW 8.1 mph - N/A   Overcast
11:15 PM 1.4 °F -11.3 °F -5.1 °F 74% 30.29 in 10.0 mi SW 6.9 mph - N/A   Overcast
11:35 PM 2.1 °F -9.0 °F -5.1 °F 72% 30.30 in 10.0 mi SW 5.8 mph - N/A   Overcast
11:55 PM 2.8 °F -6.6 °F -5.1 °F 70% 30.29 in 10.0 mi SW 4.6 mph - N/A   Overcast